QPF
0.00 0.01 0.01 0.01 0.01 0.02 0.02 0.03 0.03 0.04 0.04 0.04 0.03 0.03 0.02 0.01 0.01 0.02 0.02 0.02 0.02 0.03 0.03 0.03 0.02 0.02 0.02 0.02 0.01 0.01 0.01 0.00 0.00 0.00 0.01 0.01 0.00 0.01 0.02 0.03 0.02 0.01 0.02
0.00 0.01 0.01 0.01 0.01 0.02 0.02 0.02 0.03 0.04 0.04 0.04 0.04 0.04 0.03 0.02 0.01 0.02 0.03 0.03 0.03 0.04 0.03 0.03 0.01 0.01 0.02 0.02 0.02 0.02 0.00 0.00 0.00 0.00 0.00 0.00 0.00 0.01 0.01 0.01 0.01 0.02 0.03
0.00 0.00 0.01 0.01 0.01 0.01 0.02 0.02 0.02 0.03 0.04 0.05 0.04 0.04 0.03 0.03 0.02 0.02 0.02 0.04 0.04 0.04 0.04 0.04 0.03 0.02 0.02 0.02 0.01 0.01 0.01 0.00 0.00 0.01 0.01 0.01 0.01 0.01 0.01 0.01 0.01 0.01 0.02
0.00 0.01 0.01 0.01 0.01 0.01 0.02 0.02 0.02 0.03 0.04 0.04 0.04 0.04 0.04 0.04 0.03 0.03 0.03 0.03 0.03 0.03 0.02 0.02 0.02 0.02 0.01 0.01 0.01 0.01 0.01 0.00 0.01 0.01 0.02 0.02 0.01 0.02 0.02 0.01 0.01 0.01 0.01
0.01 0.01 0.01 0.01 0.01 0.01 0.01 0.02 0.03 0.04 0.04 0.05 0.05 0.05 0.05 0.05 0.05 0.05 0.03 0.03 0.02 0.02 0.01 0.01 0.01 0.01 0.01 0.01 0.01 0.01 0.00 0.00 0.01 0.02 0.02 0.02 0.02 0.02 0.01 0.01 0.02 0.01 0.02
0.01 0.02 0.01 0.01 0.01 0.02 0.01 0.02 0.02 0.03 0.03 0.04 0.05 0.05 0.05 0.06 0.07 0.06 0.04 0.04 0.02 0.02 0.01 0.01 0.01 0.01 0.01 0.01 0.00 0.01 0.01 0.01 0.01 0.01 0.01 0.01 0.03 0.03 0.01 0.01 0.02 0.01 0.01
0.01 0.02 0.02 0.02 0.02 0.02 0.03 0.03 0.02 0.03 0.04 0.04 0.05 0.06 0.06 0.05 0.05 0.04 0.03 0.03 0.04 0.03 0.02 0.01 0.02 0.01 0.01 0.01 0.00 0.00 0.00 0.00 0.01 0.01 0.01 0.02 0.03 0.03 0.02 0.02 0.01 0.02 0.01
0.02 0.02 0.03 0.02 0.02 0.03 0.04 0.03 0.03 0.04 0.05 0.05 0.05 0.06 0.07 0.06 0.05 0.05 0.04 0.03 0.03 0.03 0.02 0.02 0.02 0.02 0.01 0.01 0.00 0.00 0.00 0.00 0.01 0.01 0.01 0.02 0.02 0.03 0.02 0.01 0.01 0.01 0.01
0.03 0.03 0.04 0.04 0.03 0.03 0.04 0.04 0.04 0.05 0.05 0.05 0.04 0.06 0.07 0.06 0.05 0.04 0.02 0.02 0.02 0.03 0.03 0.02 0.02 0.02 0.02 0.01 0.00 0.00 0.00 0.00 0.01 0.01 0.01 0.01 0.02 0.02 0.02 0.01 0.01 0.01 0.01
0.04 0.05 0.05 0.05 0.05 0.05 0.04 0.03 0.04 0.04 0.05 0.04 0.04 0.05 0.04 0.05 0.05 0.04 0.03 0.02 0.02 0.03 0.03 0.03 0.02 0.01 0.01 0.01 0.00 0.00 0.00 0.00 0.00 0.01 0.01 0.01 0.02 0.02 0.02 0.01 0.01 0.01 0.01
0.04 0.05 0.06 0.06 0.06 0.05 0.04 0.03 0.04 0.04 0.05 0.04 0.04 0.03 0.03 0.04 0.05 0.05 0.04 0.03 0.04 0.03 0.03 0.02 0.01 0.01 0.01 0.00 0.00 0.00 0.00 0.01 0.00 0.01 0.01 0.01 0.02 0.02 0.03 0.02 0.02 0.01 0.01
0.04 0.04 0.05 0.06 0.06 0.07 0.05 0.06 0.08 0.08 0.07 0.05 0.04 0.03 0.04 0.06 0.06 0.05 0.05 0.04 0.03 0.03 0.03 0.02 0.02 0.02 0.01 0.01 0.00 0.00 0.01 0.00 0.00 0.01 0.01 0.01 0.02 0.02 0.03 0.03 0.02 0.02 0.02
0.03 0.04 0.05 0.06 0.06 0.07 0.08 0.08 0.08 0.08 0.08 0.08 0.06 0.05 0.07 0.09 0.09 0.07 0.06 0.05 0.04 0.04 0.03 0.03 0.02 0.02 0.02 0.02 0.01 0.00 0.01 0.01 0.01 0.00 0.00 0.01 0.02 0.01 0.02 0.03 0.03 0.03 0.03
0.04 0.05 0.05 0.06 0.06 0.07 0.07 0.07 0.07 0.07 0.07 0.08 0.08 0.08 0.07 0.10 0.11 0.09 0.07 0.06 0.06 0.05 0.05 0.03 0.03 0.02 0.02 0.01 0.01 0.01 0.01 0.01 0.01 0.01 0.01 0.01 0.02 0.02 0.02 0.02 0.02 0.03 0.04
0.04 0.05 0.05 0.06 0.06 0.06 0.07 0.07 0.07 0.06 0.06 0.07 0.07 0.07 0.06 0.07 0.10 0.10 0.08 0.08 0.09 0.09 0.08 0.05 0.03 0.04 0.02 0.01 0.01 0.01 0.01 0.01 0.01 0.01 0.01 0.00 0.01 0.02 0.02 0.02 0.03 0.03 0.03
0.04 0.05 0.06 0.05 0.05 0.05 0.06 0.07 0.07 0.07 0.07 0.07 0.07 0.06 0.05 0.07 0.09 0.10 0.08 0.08 0.09 0.09 0.08 0.06 0.04 0.04 0.03 0.02 0.02 0.01 0.01 0.01 0.01 0.01 0.02 0.01 0.01 0.01 0.02 0.02 0.03 0.04 0.03
0.04 0.05 0.05 0.05 0.05 0.05 0.06 0.07 0.07 0.07 0.07 0.07 0.07 0.07 0.05 0.06 0.08 0.10 0.10 0.09 0.08 0.07 0.07 0.06 0.06 0.05 0.04 0.03 0.02 0.02 0.02 0.02 0.01 0.01 0.01 0.01 0.01 0.01 0.01 0.02 0.02 0.03 0.02
0.05 0.06 0.05 0.04 0.04 0.04 0.04 0.05 0.05 0.06 0.06 0.07 0.04 0.05 0.05 0.04 0.06 0.06 0.05 0.08 0.10 0.10 0.08 0.07 0.06 0.06 0.06 0.04 0.02 0.01 0.01 0.01 0.01 0.01 0.02 0.03 0.01 0.01 0.01 0.01 0.02 0.02 0.02
0.05 0.05 0.06 0.04 0.04 0.03 0.03 0.04 0.04 0.05 0.04 0.06 0.06 0.04 0.05 0.04 0.04 0.04 0.02 0.02 0.05 0.08 0.10 0.09 0.07 0.06 0.04 0.03 0.03 0.02 0.02 0.02 0.02 0.01 0.02 0.03 0.03 0.01 0.01 0.01 0.01 0.01 0.02
0.05 0.05 0.05 0.04 0.04 0.03 0.03 0.03 0.03 0.03 0.02 0.03 0.05 0.04 0.04 0.03 0.03 0.02 0.01 0.01 0.02 0.04 0.07 0.09 0.09 0.08 0.05 0.04 0.03 0.03 0.03 0.03 0.03 0.03 0.03 0.03 0.03 0.02 0.02 0.02 0.01 0.01 0.01
0.05 0.05 0.06 0.05 0.04 0.03 0.02 0.02 0.02 0.02 0.02 0.02 0.03 0.03 0.04 0.03 0.03 0.02 0.01 0.01 0.01 0.01 0.03 0.05 0.07 0.08 0.07 0.06 0.04 0.03 0.02 0.02 0.03 0.02 0.03 0.03 0.03 0.03 0.03 0.03 0.01 0.01 0.01
0.03 0.04 0.04 0.05 0.04 0.03 0.03 0.02 0.02 0.02 0.02 0.02 0.03 0.03 0.04 0.03 0.03 0.02 0.01 0.01 0.01 0.01 0.02 0.05 0.05 0.06 0.07 0.06 0.04 0.03 0.03 0.02 0.02 0.02 0.02 0.02 0.03 0.03 0.03 0.04 0.03 0.02 0.01
0.03 0.03 0.03 0.04 0.04 0.03 0.03 0.03 0.03 0.02 0.02 0.02 0.04 0.05 0.03 0.03 0.02 0.01 0.01 0.01 0.01 0.01 0.02 0.04 0.06 0.05 0.05 0.05 0.04 0.04 0.03 0.02 0.01 0.01 0.01 0.01 0.02 0.02 0.03 0.03 0.04 0.04 0.03
0.03 0.03 0.03 0.03 0.04 0.04 0.04 0.03 0.03 0.02 0.02 0.02 0.02 0.06 0.05 0.03 0.02 0.01 0.01 0.01 0.01 0.01 0.01 0.03 0.05 0.06 0.05 0.05 0.05 0.05 0.04 0.03 0.03 0.02 0.02 0.02 0.01 0.02 0.02 0.03 0.02 0.03 0.04
0.03 0.03 0.04 0.04 0.04 0.04 0.04 0.03 0.03 0.03 0.02 0.01 0.01 0.03 0.07 0.06 0.03 0.02 0.02 0.01 0.01 0.00 0.01 0.02 0.04 0.06 0.06 0.05 0.04 0.04 0.03 0.03 0.03 0.02 0.02 0.02 0.02 0.01 0.02 0.02 0.02 0.02 0.02
0.03 0.03 0.04 0.05 0.04 0.05 0.04 0.03 0.03 0.03 0.02 0.02 0.01 0.01 0.03 0.06 0.07 0.04 0.02 0.02 0.01 0.00 0.00 0.01 0.03 0.05 0.06 0.05 0.04 0.03 0.03 0.02 0.02 0.02 0.02 0.02 0.01 0.01 0.01 0.01 0.01 0.01 0.01
MSLP
1009.60 1009.84 1010.21 1010.71 1011.29 1011.92 1012.54 1013.11 1013.61 1014.04 1014.39 1014.71 1015.02 1015.34 1015.68 1016.03 1016.39 1016.73 1017.04 1017.30 1017.53 1017.72 1017.91 1018.10 1018.29 1018.51 1018.72 1018.93 1019.12 1019.28 1019.42 1019.54 1019.66 1019.78 1019.92 1020.06 1020.21 1020.33 1020.43 1020.47 1020.46 1020.40 1020.30
1009.12 1009.44 1009.91 1010.51 1011.19 1011.90 1012.57 1013.18 1013.70 1014.14 1014.52 1014.86 1015.21 1015.57 1015.96 1016.35 1016.73 1017.07 1017.36 1017.61 1017.82 1018.01 1018.21 1018.43 1018.67 1018.94 1019.20 1019.44 1019.64 1019.80 1019.91 1020.01 1020.10 1020.22 1020.36 1020.52 1020.69 1020.84 1020.95 1021.00 1020.98 1020.90 1020.78
1008.61 1009.01 1009.58 1010.28 1011.06 1011.85 1012.59 1013.24 1013.80 1014.26 1014.66 1015.03 1015.41 1015.81 1016.22 1016.63 1017.01 1017.34 1017.60 1017.82 1018.01 1018.20 1018.42 1018.68 1018.97 1019.29 1019.60 1019.87 1020.08 1020.24 1020.34 1020.41 1020.49 1020.59 1020.74 1020.92 1021.11 1021.28 1021.42 1021.49 1021.48 1021.40 1021.28
1008.18 1008.66 1009.31 1010.10 1010.96 1011.81 1012.60 1013.30 1013.88 1014.37 1014.79 1015.19 1015.60 1016.02 1016.45 1016.86 1017.23 1017.54 1017.78 1017.97 1018.15 1018.34 1018.58 1018.88 1019.22 1019.58 1019.93 1020.23 1020.46 1020.61 1020.70 1020.76 1020.82 1020.92 1021.07 1021.26 1021.48 1021.68 1021.84 1021.93 1021.95 1021.89 1021.78
1007.91 1008.45 1009.16 1010.01 1010.92 1011.82 1012.64 1013.36 1013.96 1014.46 1014.91 1015.33 1015.76 1016.20 1016.63 1017.04 1017.40 1017.70 1017.92 1018.11 1018.28 1018.48 1018.75 1019.07 1019.45 1019.85 1020.22 1020.54 1020.78 1020.93 1021.02 1021.07 1021.13 1021.24 1021.39 1021.60 1021.83 1022.05 1022.23 1022.35 1022.38 1022.35 1022.27
1007.83 1008.41 1009.17 1010.05 1010.98 1011.89 1012.72 1013.43 1014.03 1014.54 1015.00 1015.44 1015.88 1016.33 1016.78 1017.20 1017.56 1017.85 1018.08 1018.27 1018.46 1018.69 1018.97 1019.32 1019.72 1020.13 1020.52 1020.84 1021.08 1021.23 1021.32 1021.38 1021.46 1021.58 1021.75 1021.97 1022.21 1022.44 1022.62 1022.75 1022.80 1022.78 1022.72
1007.93 1008.55 1009.33 1010.21 1011.14 1012.03 1012.83 1013.53 1014.11 1014.62 1015.08 1015.53 1015.99 1016.46 1016.92 1017.36 1017.74 1018.05 1018.30 1018.52 1018.74 1018.99 1019.29 1019.65 1020.05 1020.46 1020.84 1021.14 1021.37 1021.53 1021.63 1021.72 1021.82 1021.97 1022.16 1022.39 1022.64 1022.86 1023.04 1023.15 1023.20 1023.19 1023.14
1008.15 1008.80 1009.58 1010.45 1011.35 1012.20 1012.97 1013.64 1014.21 1014.71 1015.18 1015.64 1016.12 1016.60 1017.09 1017.54 1017.95 1018.29 1018.59 1018.85 1019.10 1019.39 1019.71 1020.08 1020.46 1020.85 1021.19 1021.47 1021.69 1021.84 1021.97 1022.09 1022.23 1022.42 1022.64 1022.89 1023.13 1023.34 1023.49 1023.58 1023.60 1023.58 1023.53
1008.39 1009.06 1009.84 1010.69 1011.55 1012.36 1013.10 1013.75 1014.31 1014.81 1015.30 1015.78 1016.28 1016.78 1017.29 1017.77 1018.20 1018.58 1018.92 1019.23 1019.54 1019.86 1020.20 1020.56 1020.92 1021.27 1021.57 1021.82 1022.01 1022.17 1022.32 1022.48 1022.68 1022.91 1023.17 1023.44 1023.68 1023.86 1023.98 1024.02 1024.00 1023.95 1023.90
1008.58 1009.26 1010.04 1010.86 1011.68 1012.46 1013.17 1013.81 1014.39 1014.92 1015.43 1015.94 1016.47 1016.99 1017.51 1018.00 1018.46 1018.88 1019.26 1019.62 1019.97 1020.33 1020.69 1021.05 1021.39 1021.69 1021.95 1022.16 1022.33 1022.50 1022.67 1022.88 1023.13 1023.42 1023.73 1024.01 1024.25 1024.41 1024.48 1024.48 1024.42 1024.34 1024.26
1008.65 1009.34 1010.09 1010.88 1011.68 1012.44 1013.15 1013.80 1014.41 1014.99 1015.55 1016.11 1016.66 1017.20 1017.73 1018.23 1018.69 1019.13 1019.55 1019.95 1020.35 1020.74 1021.12 1021.48 1021.81 1022.08 1022.30 1022.48 1022.64 1022.82 1023.02 1023.28 1023.58 1023.92 1024.26 1024.57 1024.80 1024.94 1024.98 1024.94 1024.84 1024.73 1024.64
1008.59 1009.26 1009.99 1010.75 1011.51 1012.27 1012.99 1013.68 1014.35 1014.99 1015.62 1016.22 1016.81 1017.37 1017.89 1018.39 1018.85 1019.30 1019.74 1020.17 1020.61 1021.04 1021.46 1021.83 1022.16 1022.42 1022.62 1022.79 1022.95 1023.13 1023.36 1023.66 1024.01 1024.39 1024.76 1025.08 1025.31 1025.44 1025.46 1025.39 1025.28 1025.16 1025.06
1008.40 1009.04 1009.73 1010.46 1011.20 1011.94 1012.69 1013.44 1014.17 1014.90 1015.59 1016.26 1016.88 1017.45 1017.98 1018.46 1018.91 1019.36 1019.81 1020.27 1020.75 1021.23 1021.68 1022.09 1022.44 1022.71 1022.92 1023.10 1023.26 1023.46 1023.72 1024.04 1024.42 1024.82 1025.21 1025.54 1025.77 1025.89 1025.91 1025.84 1025.72 1025.61 1025.53
1008.13 1008.73 1009.37 1010.05 1010.76 1011.51 1012.28 1013.08 1013.89 1014.69 1015.46 1016.19 1016.85 1017.44 1017.96 1018.43 1018.87 1019.31 1019.78 1020.27 1020.79 1021.31 1021.82 1022.28 1022.67 1022.99 1023.23 1023.43 1023.62 1023.84 1024.11 1024.44 1024.83 1025.24 1025.63 1025.95 1026.18 1026.30 1026.32 1026.27 1026.18 1026.09 1026.04
1007.82 1008.37 1008.96 1009.59 1010.28 1011.02 1011.81 1012.65 1013.52 1014.39 1015.24 1016.02 1016.72 1017.32 1017.85 1018.32 1018.76 1019.20 1019.68 1020.20 1020.76 1021.35 1021.92 1022.44 1022.90 1023.27 1023.56 1023.80 1024.03 1024.27 1024.56 1024.89 1025.27 1025.67 1026.03 1026.34 1026.56 1026.68 1026.71 1026.69 1026.64 1026.60 1026.59
1007.48 1007.99 1008.54 1009.14 1009.81 1010.54 1011.35 1012.22 1013.13 1014.05 1014.94 1015.77 1016.50 1017.14 1017.68 1018.16 1018.61 1019.08 1019.58 1020.13 1020.74 1021.38 1022.01 1022.60 1023.13 1023.57 1023.93 1024.23 1024.50 1024.77 1025.07 1025.40 1025.76 1026.12 1026.45 1026.72 1026.92 1027.03 1027.08 1027.09 1027.09 1027.10 1027.14
1007.13 1007.62 1008.16 1008.75 1009.41 1010.14 1010.96 1011.85 1012.78 1013.73 1014.64 1015.50 1016.26 1016.92 1017.49 1018.00 1018.48 1018.98 1019.51 1020.11 1020.76 1021.44 1022.13 1022.78 1023.38 1023.89 1024.31 1024.68 1025.00 1025.31 1025.63 1025.95 1026.28 1026.60 1026.88 1027.11 1027.28 1027.39 1027.45 1027.48 1027.52 1027.58 1027.66
1006.78 1007.27 1007.82 1008.43 1009.11 1009.86 1010.69 1011.58 1012.52 1013.47 1014.39 1015.25 1016.03 1016.72 1017.33 1017.88 1018.40 1018.93 1019.51 1020.14 1020.83 1021.55 1022.27 1022.97 1023.61 1024.18 1024.68 1025.11 1025.49 1025.84 1026.18 1026.50 1026.81 1027.09 1027.32 1027.51 1027.64 1027.73 1027.80 1027.85 1027.92 1028.01 1028.13
1006.41 1006.93 1007.52 1008.18 1008.91 1009.70 1010.55 1011.44 1012.37 1013.31 1014.21 1015.07 1015.85 1016.56 1017.20 1017.79 1018.36 1018.94 1019.56 1020.22 1020.93 1021.66 1022.40 1023.12 1023.80 1024.41 1024.96 1025.45 1025.90 1026.30 1026.66 1027.00 1027.30 1027.55 1027.75 1027.90 1028.00 1028.07 1028.12 1028.19 1028.28 1028.39 1028.53
1006.05 1006.61 1007.26 1008.00 1008.79 1009.63 1010.51 1011.42 1012.33 1013.24 1014.12 1014.95 1015.73 1016.44 1017.11 1017.74 1018.36 1018.98 1019.63 1020.31 1021.02 1021.76 1022.49 1023.21 1023.89 1024.53 1025.13 1025.67 1026.17 1026.63 1027.04 1027.40 1027.71 1027.95 1028.13 1028.25 1028.33 1028.37 1028.42 1028.48 1028.58 1028.71 1028.86
1005.73 1006.32 1007.03 1007.84 1008.72 1009.63 1010.55 1011.47 1012.37 1013.24 1014.08 1014.88 1015.64 1016.35 1017.04 1017.70 1018.35 1019.01 1019.69 1020.38 1021.08 1021.79 1022.50 1023.20 1023.88 1024.53 1025.15 1025.73 1026.29 1026.80 1027.27 1027.67 1028.01 1028.26 1028.43 1028.54 1028.60 1028.63 1028.67 1028.73 1028.82 1028.95 1029.11
1005.51 1006.08 1006.83 1007.70 1008.65 1009.62 1010.59 1011.52 1012.41 1013.26 1014.06 1014.82 1015.55 1016.26 1016.95 1017.63 1018.31 1019.00 1019.69 1020.38 1021.07 1021.75 1022.43 1023.10 1023.75 1024.40 1025.04 1025.66 1026.26 1026.83 1027.35 1027.80 1028.17 1028.45 1028.63 1028.74 1028.80 1028.83 1028.86 1028.91 1029.00 1029.13 1029.28
1005.45 1005.95 1006.68 1007.58 1008.56 1009.58 1010.58 1011.53 1012.41 1013.23 1014.00 1014.73 1015.43 1016.12 1016.81 1017.51 1018.21 1018.91 1019.61 1020.30 1020.97 1021.63 1022.28 1022.92 1023.55 1024.19 1024.84 1025.48 1026.12 1026.73 1027.30 1027.80 1028.21 1028.52 1028.73 1028.85 1028.92 1028.95 1028.98 1029.03 1029.12 1029.24 1029.40
1005.59 1005.96 1006.61 1007.47 1008.45 1009.47 1010.48 1011.44 1012.32 1013.12 1013.87 1014.57 1015.25 1015.93 1016.62 1017.32 1018.04 1018.75 1019.45 1020.14 1020.81 1021.45 1022.08 1022.70 1023.32 1023.95 1024.60 1025.26 1025.92 1026.57 1027.17 1027.70 1028.14 1028.48 1028.72 1028.87 1028.95 1028.99 1029.03 1029.08 1029.17 1029.30 1029.46
1005.98 1006.15 1006.65 1007.41 1008.32 1009.30 1010.29 1011.24 1012.11 1012.91 1013.64 1014.34 1015.01 1015.68 1016.37 1017.08 1017.80 1018.52 1019.23 1019.93 1020.60 1021.24 1021.87 1022.48 1023.10 1023.74 1024.39 1025.06 1025.73 1026.38 1027.00 1027.55 1028.01 1028.37 1028.63 1028.80 1028.90 1028.96 1029.01 1029.07 1029.17 1029.30 1029.46
1006.60 1006.53 1006.82 1007.41 1008.20 1009.10 1010.03 1010.95 1011.81 1012.60 1013.34 1014.04 1014.72 1015.40 1016.09 1016.80 1017.52 1018.24 1018.97 1019.67 1020.35 1021.01 1021.65 1022.28 1022.91 1023.55 1024.21 1024.88 1025.55 1026.20 1026.82 1027.37 1027.84 1028.20 1028.48 1028.67 1028.79 1028.88 1028.94 1029.02 1029.12 1029.25 1029.42
Thickness
5734 5733 5731 5729 5728 5727 5726 5725 5724 5723 5722 5721 5720 5720 5719 5719 5718 5718 5717 5717 5717 5717 5717 5716 5716 5715 5715 5714 5714 5713 5713 5712 5711 5711 5711 5710 5710 5710 5710 5709 5709 5708 5708
5735 5731 5728 5727 5726 5724 5723 5722 5721 5720 5719 5718 5717 5717 5716 5715 5715 5714 5714 5714 5714 5713 5713 5713 5712 5712 5711 5710 5710 5709 5709 5708 5708 5708 5707 5707 5707 5706 5706 5705 5705 5704 5704
5732 5727 5724 5723 5722 5721 5720 5719 5717 5716 5716 5715 5714 5713 5712 5712 5711 5711 5710 5710 5710 5710 5710 5709 5708 5708 5707 5706 5706 5706 5706 5705 5705 5705 5704 5704 5703 5702 5702 5701 5701 5700 5700
5727 5723 5721 5719 5718 5717 5716 5715 5714 5713 5712 5711 5711 5710 5709 5708 5708 5707 5707 5706 5706 5706 5705 5705 5704 5704 5703 5702 5702 5702 5702 5702 5702 5702 5701 5700 5699 5698 5698 5698 5697 5696 5696
5722 5718 5716 5714 5713 5712 5711 5710 5710 5709 5708 5707 5707 5706 5705 5704 5704 5703 5702 5702 5702 5701 5701 5701 5700 5699 5699 5698 5698 5699 5699 5699 5699 5698 5697 5696 5695 5695 5694 5693 5693 5692 5692
5716 5713 5711 5709 5709 5708 5707 5706 5705 5704 5703 5703 5702 5701 5701 5700 5699 5699 5698 5697 5697 5697 5697 5696 5696 5695 5694 5694 5694 5695 5695 5695 5695 5694 5693 5692 5691 5690 5690 5689 5688 5688 5687
5709 5708 5705 5704 5703 5703 5702 5701 5700 5699 5699 5698 5698 5697 5696 5695 5695 5694 5693 5693 5692 5692 5692 5692 5691 5691 5690 5690 5690 5691 5691 5691 5691 5690 5688 5687 5687 5686 5685 5684 5684 5683 5683
5703 5701 5698 5698 5697 5697 5696 5696 5695 5694 5694 5693 5693 5692 5691 5691 5690 5689 5689 5689 5688 5687 5687 5687 5687 5686 5686 5685 5686 5686 5687 5687 5686 5685 5684 5682 5682 5682 5681 5680 5679 5678 5678
5695 5694 5692 5691 5690 5690 5690 5690 5689 5689 5688 5688 5687 5687 5686 5686 5685 5685 5684 5684 5683 5683 5682 5682 5682 5681 5681 5681 5681 5681 5682 5682 5681 5681 5679 5678 5677 5677 5676 5675 5674 5674 5673
5686 5686 5685 5684 5684 5684 5683 5683 5683 5683 5682 5682 5682 5681 5681 5681 5680 5680 5679 5679 5679 5678 5677 5677 5677 5676 5676 5676 5677 5677 5677 5677 5676 5675 5674 5673 5673 5672 5671 5670 5670 5669 5668
5676 5677 5678 5678 5677 5677 5677 5676 5677 5676 5676 5676 5676 5676 5676 5675 5675 5675 5674 5674 5673 5673 5673 5672 5672 5671 5671 5671 5672 5672 5672 5672 5671 5670 5669 5668 5668 5667 5666 5665 5664 5663 5663
5664 5668 5670 5670 5670 5671 5671 5670 5670 5670 5670 5670 5670 5670 5670 5670 5670 5670 5669 5669 5668 5668 5668 5667 5667 5667 5667 5667 5667 5668 5668 5667 5666 5665 5663 5663 5663 5662 5661 5660 5659 5658 5658
5656 5658 5661 5662 5663 5664 5664 5663 5663 5664 5664 5664 5664 5664 5664 5665 5665 5664 5664 5663 5663 5663 5663 5663 5663 5663 5662 5662 5663 5663 5663 5662 5661 5659 5658 5658 5657 5656 5655 5654 5653 5653 5652
5645 5648 5651 5653 5655 5656 5657 5656 5657 5657 5657 5658 5658 5659 5659 5659 5659 5659 5659 5659 5658 5658 5658 5658 5658 5659 5658 5658 5658 5658 5657 5657 5655 5653 5652 5652 5651 5650 5649 5648 5647 5647 5646
5635 5638 5641 5644 5646 5647 5649 5649 5649 5650 5650 5651 5652 5652 5653 5653 5654 5654 5653 5653 5654 5654 5654 5654 5654 5654 5654 5653 5653 5652 5651 5651 5649 5647 5646 5645 5645 5644 5643 5643 5642 5641 5640
5625 5628 5631 5634 5636 5639 5640 5641 5642 5642 5643 5643 5644 5645 5646 5647 5647 5648 5648 5648 5648 5649 5649 5648 5649 5648 5648 5648 5647 5646 5645 5645 5643 5642 5640 5639 5638 5638 5637 5636 5635 5634 5633
5614 5617 5620 5624 5627 5629 5631 5632 5633 5634 5635 5636 5636 5637 5638 5639 5641 5641 5642 5642 5642 5643 5643 5643 5642 5642 5641 5641 5640 5639 5639 5638 5637 5636 5634 5633 5632 5631 5631 5630 5629 5628 5627
5603 5606 5609 5613 5616 5618 5621 5623 5625 5625 5627 5627 5629 5629 5630 5632 5634 5634 5634 5635 5635 5636 5637 5636 5636 5634 5633 5633 5632 5632 5632 5631 5630 5630 5628 5627 5626 5625 5624 5623 5622 5621 5620
5592 5595 5598 5601 5604 5607 5610 5612 5614 5616 5618 5619 5620 5621 5622 5624 5625 5626 5627 5628 5629 5630 5629 5629 5628 5627 5625 5624 5624 5624 5623 5623 5623 5622 5621 5620 5619 5618 5617 5616 5615 5614 5613
5579 5583 5586 5589 5592 5595 5598 5601 5603 5605 5607 5609 5610 5612 5614 5616 5617 5619 5620 5620 5622 5622 5622 5621 5620 5620 5619 5618 5617 5615 5615 5615 5615 5615 5614 5613 5612 5611 5610 5609 5608 5606 5605
5566 5570 5573 5577 5579 5582 5585 5588 5590 5592 5595 5598 5601 5603 5605 5607 5609 5610 5611 5612 5613 5614 5614 5614 5613 5611 5610 5610 5607 5605 5605 5606 5607 5606 5606 5606 5605 5604 5603 5602 5600 5599 5598
5553 5557 5561 5564 5567 5570 5573 5577 5580 5581 5584 5587 5589 5592 5595 5597 5599 5601 5603 5604 5605 5605 5606 5606 5606 5604 5603 5603 5601 5598 5595 5594 5597 5598 5598 5598 5597 5596 5595 5594 5594 5592 5591
5539 5544 5548 5552 5555 5559 5562 5566 5569 5570 5572 5574 5578 5581 5584 5587 5589 5591 5594 5595 5596 5597 5598 5598 5598 5598 5595 5595 5596 5594 5591 5589 5587 5588 5589 5590 5589 5588 5588 5587 5586 5585 5584
5526 5531 5535 5539 5543 5547 5551 5555 5558 5560 5562 5564 5567 5570 5573 5576 5578 5581 5584 5586 5587 5588 5589 5590 5591 5590 5589 5587 5587 5588 5588 5588 5583 5580 5580 5581 5581 5580 5580 5580 5579 5578 5577
5514 5518 5522 5527 5530 5535 5539 5543 5547 5549 5551 5554 5556 5559 5562 5565 5567 5570 5573 5575 5577 5578 5580 5581 5582 5583 5582 5581 5580 5579 5580 5580 5580 5576 5573 5572 5572 5572 5572 5572 5571 5570 5570
5502 5505 5510 5514 5517 5522 5527 5531 5534 5538 5540 5543 5545 5548 5551 5554 5556 5559 5562 5564 5567 5568 5570 5572 5573 5573 5574 5574 5573 5573 5572 5571 5571 5570 5568 5566 5564 5565 5565 5565 5564 5563 5562